Van Nuys, CA

9:26 PM PDT on March 23, 2017 (GMT -0700)
Van Nuys

Weather History for KVNY - December, 2013

Change the Weather History Date:

Sunday, December 15, 2013

  Actual Average Record
Temperature  
Mean Temperature 70 °F -  
Max Temperature 78 °F 65 °F 79 °F (1998)
Min Temperature 61 °F 44 °F 36 °F (2011)
Cooling Degree Days 4    
Growing Degree Days 20 (Base 50)    
Moisture  
Dew Point 15 °F    
Average Humidity 13    
Maximum Humidity 17    
Minimum Humidity 9    
Precipitation  
Precipitation 0.00 in - - ()
Sea Level Pressure  
Sea Level Pressure 30.16 in    
Wind  
Wind Speed 15 mph (North)    
Max Wind Speed 22 mph    
Max Gust Speed 33 mph    
Visibility 10 miles    
Events      
Averages and records for this station are not official NWS values.
T = Trace of Precipitation, MM = Missing Value Source: NWS Daily Summary

Daily Weather History Graph

Daily Weather History Graph

Search for Another Location

Airport or City:

Trip Planner

Search our weather history database for the weather conditions in past years. The results will help you decide how hot, cold, wet, or windy it might be!

Date:

Astronomy

Dec. 15, 2013 Rise Set
Actual Time 6:52 AM PST 4:45 PM PST
Civil Twilight 6:24 AM PST 5:13 PM PST
Nautical Twilight 5:53 AM PST 5:45 PM PST
Astronomical Twilight 5:22 AM PST 6:15 PM PST
Moon 3:51 PM PST (12/15) 5:16 AM PST (12/15)
Length of Visible Light 10h 48m
Length of Day
9h 53m
Waxing Gibbous, 98% of the Moon is Illuminated
Dec 15
Waxing Gibbous
Dec 17
Full
Dec 25
Last Quarter
Jan 1
New
Jan 7
First Quarter

Hourly Weather History & Observations

Time (PST) Temp. Dew Point Humidity Pressure Visibility Wind Dir Wind Speed Gust Speed Precip Events Conditions
12:51 AM 63.0 °F 12.9 °F 14% 30.21 in 10.0 mi North 17.3 mph 24.2 mph N/A   Clear
1:51 AM 63.0 °F 14.0 °F 15% 30.21 in 10.0 mi North 12.7 mph - N/A   Clear
2:51 AM 63.0 °F 14.0 °F 15% 30.20 in 10.0 mi North 16.1 mph - N/A   Clear
3:51 AM 63.0 °F 12.9 °F 14% 30.18 in 10.0 mi North 18.4 mph 24.2 mph N/A   Clear
4:51 AM 64.0 °F 12.9 °F 14% 30.18 in 10.0 mi North 17.3 mph 26.5 mph N/A   Clear
4:58 AM 62.6 °F 12.2 °F 14% 30.20 in 10.0 mi NNE 13.8 mph 26.5 mph N/A   Clear
5:51 AM 62.1 °F 14.0 °F 15% 30.19 in 10.0 mi NE 10.4 mph - N/A   Clear
6:51 AM 61.0 °F 15.1 °F 17% 30.20 in 10.0 mi NNE 11.5 mph - N/A   Clear
7:51 AM 63.0 °F 15.1 °F 16% 30.21 in 10.0 mi North 15.0 mph 21.9 mph N/A   Clear
8:51 AM 66.0 °F 16.0 °F 15% 30.22 in 10.0 mi North 18.4 mph 25.3 mph N/A   Clear
9:51 AM 70.0 °F 16.0 °F 13% 30.22 in 10.0 mi North 15.0 mph - N/A   Clear
10:51 AM 73.0 °F 15.1 °F 11% 30.19 in 10.0 mi North 21.9 mph 29.9 mph N/A   Clear
11:51 AM 75.0 °F 14.0 °F 10% 30.15 in 10.0 mi North 19.6 mph 33.4 mph N/A   Clear
12:51 PM 78.1 °F 14.0 °F 9% 30.12 in 10.0 mi North 18.4 mph 25.3 mph N/A   Clear
1:51 PM 77.0 °F 12.9 °F 9% 30.09 in 10.0 mi North 20.7 mph 27.6 mph N/A   Mostly Cloudy
2:51 PM 73.9 °F 16.0 °F 11% 30.08 in 10.0 mi North 18.4 mph 27.6 mph N/A   Mostly Cloudy
3:51 PM 73.0 °F 17.1 °F 12% 30.09 in 10.0 mi North 18.4 mph 23.0 mph N/A   Clear
4:51 PM 71.1 °F 17.1 °F 13% 30.09 in 10.0 mi North 18.4 mph 24.2 mph N/A   Scattered Clouds
5:51 PM 69.1 °F 16.0 °F 13% 30.10 in 10.0 mi North 15.0 mph - N/A   Clear
6:51 PM 69.1 °F 16.0 °F 13% 30.12 in 10.0 mi North 13.8 mph - N/A   Clear
7:51 PM 69.1 °F 15.1 °F 13% 30.12 in 10.0 mi North 12.7 mph 19.6 mph N/A   Scattered Clouds
8:51 PM 68.0 °F 15.1 °F 13% 30.12 in 10.0 mi North 10.4 mph - N/A   Clear
9:51 PM 69.1 °F 15.1 °F 13% 30.13 in 10.0 mi Variable 5.8 mph - N/A   Clear
10:51 PM 64.9 °F 17.1 °F 16% 30.14 in 10.0 mi WNW 4.6 mph - N/A   Clear
11:51 PM 64.0 °F 18.0 °F 17% 30.12 in 10.0 mi WNW 4.6 mph - N/A   Clear